Covington, KY

8:28 AM EST on December 13, 2019 (GMT -0500)
Cincinnati-Northern KY International

Weather History for KCVG - October, 2019

Change the Weather History Date:

Wednesday, October 9, 2019

  Actual Average Record
Temperature  
Mean Temperature 63 °F 58 °F  
Max Temperature 75 °F 69 °F 90 °F (1939)
Min Temperature 50 °F 48 °F 31 °F (1951)
Degree Days  
Heating Degree Days 2 8  
Month to date heating degree days 15 61  
Since 1 July heating degree days 15 119  
Cooling Degree Days 0 1  
Month to date cooling degree days 50 11  
Year to date cooling degree days 1492 1116  
Growing Degree Days 13 (Base 50)    
Moisture  
Dew Point 50 °F    
Average Humidity 67    
Maximum Humidity 87    
Minimum Humidity 48    
Precipitation  
Precipitation 0.00 in 0.11 in 1.88 in (1999)
Month to date precipitation 0.52 0.93  
Year to date precipitation 42.94 33.35  
Snow  
Snow 0.00 in 0.00 in 0.00 in ()
Month to date snowfall 0.0 0.0  
Since 1 July snowfall 0.0 0.0  
Since 1 September snowfall 0.0 0.0  
Snow Depth 0.00 in    
Sea Level Pressure  
Sea Level Pressure 30.13 in    
Wind  
Wind Speed 5 mph ()    
Max Wind Speed 13 mph    
Max Gust Speed 16 mph    
Visibility 10.0 miles    
Events      
T = Trace of Precipitation, MM = Missing Value Source: Averaged Metar Reports

Daily Weather History Graph

Daily Weather History Graph

Search for Another Location

Airport or City:

Astronomy

Oct. 09, 2019 Rise Set
Actual Time 7:42 AM EDT 7:09 PM EDT
Civil Twilight 7:15 AM EDT 7:35 PM EDT
Nautical Twilight 6:44 AM EDT 8:06 PM EDT
Astronomical Twilight 6:13 AM EDT 8:37 PM EDT
Moon 5:38 PM EDT (10/9) 3:30 AM EDT (10/9)
Length of Visible Light 12h 20m
Length of Day
11h 27m
Waxing Gibbous, 85% of the Moon is Illuminated
Oct 9
Waxing Gibbous
Oct 13
Full
Oct 21
Last Quarter
Oct 27
New
Nov 4
First Quarter

Hourly Weather History & Observations

Time (EDT) Temp. Dew Point Humidity Pressure Visibility Wind Dir Wind Speed Gust Speed Precip Events Conditions
12:52 AM 57.0 °F 44.1 °F 62% 30.14 in 10.0 mi ENE 6.9 mph - N/A   Clear
1:52 AM 55.0 °F 45.0 °F 69% 30.13 in 10.0 mi East 8.1 mph - N/A   Clear
2:52 AM 54.0 °F 45.0 °F 72% 30.13 in 10.0 mi Calm Calm - N/A   Clear
3:52 AM 55.0 °F 46.0 °F 72% 30.12 in 10.0 mi NE 3.5 mph - N/A   Clear
4:52 AM 54.0 °F 46.9 °F 77% 30.12 in 10.0 mi NE 6.9 mph - N/A   Clear
5:52 AM 53.1 °F 48.0 °F 83% 30.13 in 10.0 mi NNE 5.8 mph - N/A   Clear
6:52 AM 52.0 °F 46.0 °F 80% 30.15 in 10.0 mi NNE 5.8 mph - N/A   Clear
7:52 AM 50.0 °F 45.0 °F 83% 30.16 in 10.0 mi NNE 5.8 mph - N/A   Clear
8:52 AM 54.0 °F 46.9 °F 77% 30.18 in 10.0 mi NE 6.9 mph - N/A   Clear
9:52 AM 59.0 °F 48.0 °F 67% 30.19 in 10.0 mi ENE 6.9 mph - N/A   Clear
10:52 AM 64.0 °F 50.0 °F 60% 30.19 in 10.0 mi ENE 11.5 mph - N/A   Clear
11:52 AM 66.9 °F 51.1 °F 57% 30.17 in 10.0 mi NE 11.5 mph - N/A   Clear
12:52 PM 70.0 °F 51.1 °F 51% 30.15 in 10.0 mi NE 11.5 mph - N/A   Partly Cloudy
1:52 PM 72.0 °F 52.0 °F 49% 30.13 in 10.0 mi ENE 10.4 mph - N/A   Partly Cloudy
2:52 PM 72.0 °F 54.0 °F 53% 30.11 in 10.0 mi Variable 4.6 mph - N/A   Partly Cloudy
3:52 PM 73.0 °F 53.1 °F 49% 30.09 in 10.0 mi ESE 5.8 mph - N/A   Partly Cloudy
4:52 PM 73.9 °F 53.1 °F 48% 30.08 in 10.0 mi Calm Calm - N/A   Partly Cloudy
5:52 PM 73.0 °F 54.0 °F 51% 30.08 in 10.0 mi SSE 8.1 mph - N/A   Partly Cloudy
6:52 PM 70.0 °F 54.0 °F 57% 30.09 in 10.0 mi ESE 8.1 mph - N/A   Partly Cloudy
7:52 PM 64.9 °F 55.0 °F 70% 30.10 in 10.0 mi SSE 5.8 mph - N/A   Clear
8:52 PM 63.0 °F 55.0 °F 75% 30.12 in 10.0 mi South 5.8 mph - N/A   Clear
9:52 PM 62.1 °F 55.9 °F 80% 30.12 in 10.0 mi South 3.5 mph - N/A   Clear
10:52 PM 61.0 °F 55.9 °F 83% 30.12 in 10.0 mi South 3.5 mph - N/A   Clear
11:52 PM 59.0 °F 55.0 °F 87% 30.13 in 10.0 mi Calm Calm - N/A   Clear